User: anonymous   Login
Location: Asheville, NC
(35.6000°N, 82.5500°W)
Time: 03:33:03
(UTC-04:00)
Language:

STRAND 1 - Orbit

View from above orbital plane
View from above orbital plane
View from above satellite
View from above satellite

Ground track
Ground track

The orbit data is extracted from the following two-line orbital elements,

1 39090U 13009E   18110.86546837 +.00000027 +00000-0 +24949-4 0  9993
2 39090 098.5276 317.9795 0010353 105.5875 254.6454 14.35020197269586
Epoch (UTC): 20 April 2018 20:46:16
Eccentricity: 0.0010353
inclination: 98.5276°
perigee height: 767 km
apogee height: 782 km
right ascension of ascending node: 317.9795°
argument of perigee: 105.5875°
revolutions per day: 14.35020197
mean anomaly at epoch: 254.6454°
orbit number at epoch: 26958

The dashed part of the orbit path shows where the satellite is in the earth's shadow,  

DLR